Regional Weather Roundup
Issued by NWS Charleston, SC

Current Version | Previous Version | Text Only | Print | Product List | Glossary Off
Versions: 1 2 3 4 5 6 7 8 9 10 11 12 13 14 15 16 17 18 19 20 21 22 23 24 25 26 27 28 29 30 31 32 33 34 35 36 37 38 39 40 41 42 43 44 45 46 47 48 49 50
000 ASUS42 KCHS 271212 RWRCHS REGIONAL WEATHER ROUNDUP NATIONAL WEATHER SERVICE CHARLESTON SC 800 AM EDT SAT MAY 27 2017 NOTE: "FAIR" INDICATES FEW OR NO CLOUDS BELOW 12,000 FEET WITH NO SIGNIFICANT WEATHER AND/OR OBSTRUCTIONS TO VISIBILITY. NOT ALL STATIONS ARE QUALITY CONTROLLED. USE DATA WITH CAUTION... ESPECIALLY DEWPOINT OBSERVATIONS. SCZ027-030-031-034>040-042>050-271300- ...SOUTHEAST SOUTH CAROLINA... CITY SKY/WX TMP DP RH WIND PRES REMARKS N CHARLESTON SUNNY 72 60 66 W7 30.03R 6HR MIN TEMP: 63; 6HR MAX TEMP: 72; WATERFRONT PRK N/A 72 64 76 SW5 30.01R JOHNS ISLAND FAIR 73 64 73 SW6 30.03S PINOPOLIS N/A 70 63 78 SW7 29.93R MONCKS CORNER FAIR 70 61 73 SW3 30.02R SUMMERVILLE FAIR 64 61 88 S3 30.03S BEAUFORT MCAS SUNNY 71 65 81 SW7 30.04R 6HR MIN TEMP: 64; 6HR MAX TEMP: 71; BEAUFORT ARPT FAIR 72 63 73 SW5 30.03R HILTON HEAD IS NOT AVBL WALTERBORO SUNNY 68 61 77 SW3 30.04R ALLENDALE FAIR 70 63 78 CALM 30.02S ...SOUTHERN MIDLANDS AND PEE DEE... CITY SKY/WX TMP DP RH WIND PRES REMARKS GEORGETOWN FAIR 68 61 77 SW6 30.02S KINGSTREE FAIR 68 61 77 S3 30.00S ORANGEBURG SUNNY 68 63 84 SW3 30.01R 6HR MIN TEMP: 61; 6HR MAX TEMP: 68; BARNWELL FAIR 70 64 83 CALM 30.02S AIKEN FAIR 68 61 77 SW6 30.05S MANNING FAIR 70 64 83 SW10G16 30.01R COLUMBIA MOSUNNY 74 63 68 W7 29.98F 6HR MIN TEMP: 64; 6HR MAX TEMP: 74; SUMTER SUNNY 72 62 70 SW8 29.97R 6HR MIN TEMP: 63; 6HR MAX TEMP: 72; FLORENCE SUNNY 68 62 81 SW6 29.99R 6HR MIN TEMP: 61; 6HR MAX TEMP: 68; MYRTLE BEACH SUNNY 70 61 73 SW7 30.00S N MYRTLE BEACH SUNNY 72 61 68 SW7 29.99S 6HR MIN TEMP: 65; 6HR MAX TEMP: 72; $$ GAZ063-065-086>088-099>101-113>116-118-119-134>141-150-271300- ...SOUTHEAST GEORGIA... CITY SKY/WX TMP DP RH WIND PRES REMARKS SAVANNAH ARPT MOSUNNY 69 59 70 SW3 30.05R 6HR MIN TEMP: 63; 6HR MAX TEMP: 69; HUNTER AAF SUNNY 70 65 85 CALM 30.03R 6HR MIN TEMP: 62; 6HR MAX TEMP: 70; FORT STEWART MOSUNNY 67 62 81 SW5 30.04R 6HR MIN TEMP: 60; 6HR MAX TEMP: 68; STATESBORO SUNNY 71 67 87 W5 30.05R SYLVANIA SUNNY 69 64 85 CALM 30.06R CLAXTON FAIR N/A N/A N/A CALM 30.06R ...CSRA...CENTRAL AND FAR SOUTHEAST GEORGIA... CITY SKY/WX TMP DP RH WIND PRES REMARKS THOMSON SUNNY 68 63 84 W5 30.08S AUGUSTA-BUSH SUNNY 69 65 86 CALM 30.02R 6HR MIN TEMP: 61; 6HR MAX TEMP: 69; AUGUSTA-DANIEL SUNNY 73 60 63 CALM 30.03R SWAINSBORO FAIR 64 63 94 CALM 30.06S VIDALIA SUNNY 68 63 83 SW3 30.06S EASTMAN FAIR 67 66 99 CALM 30.09S HAZLEHURST FAIR 70 67 89 CALM 30.06S ALMA SUNNY 68 63 84 W3 30.07R 6HR MIN TEMP: 60; 6HR MAX TEMP: 68; WAYCROSS SUNNY 71 68 91 W6 30.07F JESUP FAIR 64 59 82 CALM 30.07S BAXLEY FAIR 68 68 100 SW3 30.07R BRUNSWICK SUNNY 70 64 83 W6 30.07S SAINT SIMONS LGT RAIN 71 64 78 W6 30.07R 6HR MIN TEMP: 67; 6HR MAX TEMP: 72; 6HR PCP: TRACE; $$ SCZ027-028-034-036>038-045-046-048>050-GAZ119-141-271300- ...LAKE AND SUPPLEMENTAL COASTAL OBSERVATIONS... STATION/POSITION TIME TEMP WIND PRES WAVE SWELL AIR SEA DIR/SP/G HT/PER HT/PER/DIR (UTC) (F) (DEG/KT/KT) (MB) (FT/S) (FT/S/D) WINYAH BAY 1045 65 CALM 1016.0 LAKE MURRAY 1120 72 260/ 6/ 9 1014.9R ACE BASIN NERRS 1045 65 CALM 1017.0 FORT PULASKI 1148 71 230/ 5/ 7 1017.8R SAPELO ISLAND 1100 69 250/ 4 1018.0 $$ ANZ835-935-AMZ111-154-330-350-352-354-370-450-454-472-271300- ...C-MAN AND BUOY OBSERVATIONS... STATION/POSITION TIME TEMP WIND PRES WAVE SWELL AIR SEA DIR/SP/G HT/PER HT/PER/DIR (UTC) (F) (DEG/KT/KT) (MB) (FT/S) (FT/S/D) BUOY 41004 1150 75 74 230/ 12/ 14 1016.6R 3/ 7 2/140/ 7 BUOY 41008 1050 76 77 240/ 10/ 12 1017.2 3/ 4 2/100/ 7 FOLLY BEACH CMAN 1100 70 240/ 4/ 5 1017.1R CAPERS NEARSHORE 1108 80 76 270/ 10/ 14 1016.2R FRIPP NEARSHORE 1108 76 76 230/ 8/ 12 1016.4R STATION/POSITION TIME TEMP WIND PRES WAVE SWELL AIR SEA DIR/SP/G HT/PER HT/PER/DIR (UTC) (F) (DEG/KT/KT) (MB) (FT/S) (FT/S/D) 5E ST. MARYS GA 1130 78 N/A 2/ 7 FRYING PAN BUOY 1150 74 74 240/ 12/ 14 1015.8S 3/ 5 2/170/ 7 BUOY 41025 1150 76 76 250/ 10/ 12 1014.4S 4/ 6 3/220/ 6 CAPE LOOKOUT NC 1100 74 250/ 4/ 5 1014.6R BUOY 41002 1150 76 77 280/ 10/ 12 1017.1R 4/ 7 3/180/ 7 BUOY 41010 1150 78 79 250/ 2/ 4 1018.6R 2/ 7 2/ 90/ 7 ST AUGUSTINE FL 1200 69 75 320/ 4/ 5 1019.6R $$

USA.gov is the U.S. government's official web portal to all federal, state and local government web resources and services.